Voltar ao catálogo

THOR ABLESTAR DEB

AtivoLEO
NORAD 652·DEBRIS·🇺🇸 United States

Lançado Jun 29, 1961 de Cape Canaveral Space Force Station

Loading…

Próximas Passagens (próximas 24 horas)

TLE

AtualizadoSource: Space-Track

Época: Sep 14, 2026, 07:19 UTC

1 00652U 61015HD  26257.30537743  .00001089  00000-0  54588-3 0  9991
2 00652  66.7034 237.7486 0076857 290.8437  68.4436 14.18913786306507

Acompanhe THOR ABLESTAR DEB em tempo real com AllMySat

Download on the App Store